Theta_e
299 300 300 300 301 301 301 300 301 301 302 302 302 302 303 305 305 305 305 306 306 306 307 306 306 305 304 303 303 303 304 304 305 304 305 305 305 306 304 304 305 304 305 306 305 304 303
299 300 300 300 300 301 301 301 301 301 302 302 302 302 302 304 304 304 305 305 305 306 306 306 306 305 304 301 303 304 304 305 305 305 305 305 305 306 306 305 304 305 305 304 302 300 301
300 300 300 300 301 301 301 301 301 301 301 302 302 302 302 303 304 304 304 304 304 305 306 306 306 306 303 302 303 303 304 304 304 305 305 305 305 303 305 304 305 305 305 301 299 300 298
299 300 300 300 301 301 301 301 301 302 302 302 303 303 303 303 304 304 305 306 306 305 305 307 305 304 303 303 303 303 304 304 303 306 305 305 305 303 300 301 301 298 298 298 298 298 300
299 299 300 300 301 301 301 301 301 302 302 302 303 303 303 304 305 304 304 304 305 304 304 305 306 304 303 303 304 303 303 303 303 303 304 304 303 297 297 294 294 294 295 297 297 297 296
299 299 300 301 302 302 302 302 302 302 302 302 303 302 304 303 306 307 304 304 305 305 305 304 304 304 302 302 303 302 303 303 303 303 303 300 297 294 293 294 293 294 294 293 295 293 294
299 299 300 301 302 303 302 302 302 302 302 303 303 303 305 304 303 308 306 305 305 304 304 304 303 303 303 302 303 301 302 301 302 301 296 296 294 292 292 292 294 293 293 293 294 294 295
299 299 300 301 303 303 302 302 302 303 303 303 303 304 306 306 306 305 307 310 306 304 303 303 304 303 302 302 301 300 301 301 297 295 296 293 293 293 293 292 292 291 291 291 292 294 294
299 300 300 301 303 304 303 302 303 303 303 304 304 304 306 306 305 307 305 307 306 307 303 303 303 302 302 302 297 297 299 299 297 295 294 293 294 294 293 291 291 290 290 291 293 293 293
300 300 301 301 302 304 304 303 302 303 304 305 304 305 305 305 305 305 303 306 307 309 299 302 302 301 301 301 299 298 298 297 296 295 295 293 293 293 291 291 290 290 291 290 292 293 293
301 301 301 302 302 303 305 304 303 303 304 305 306 307 308 310 307 303 304 305 307 314 306 302 302 302 300 300 299 295 296 296 294 294 294 294 292 291 290 290 291 290 291 291 291 292 294
302 301 301 302 303 304 305 305 305 303 304 304 305 306 307 308 310 306 304 305 309 303 304 302 301 300 298 299 297 295 293 295 294 295 293 293 292 292 291 291 290 291 291 292 294 294 296
303 303 302 302 303 305 305 306 306 305 303 305 306 306 307 308 309 311 308 312 302 300 300 299 299 299 298 297 296 295 293 291 290 292 291 291 291 291 291 290 290 291 293 293 294 297 295
301 303 303 303 304 305 305 306 306 306 306 306 306 306 306 306 306 308 311 300 297 301 299 299 299 300 298 296 296 294 293 291 291 290 288 288 289 290 291 290 289 290 293 294 296 297 296
298 301 303 303 304 304 305 306 307 307 305 307 308 308 306 306 304 305 303 294 298 299 298 299 299 298 297 296 296 294 293 292 291 290 290 288 289 290 291 292 291 289 292 293 297 296 293
296 298 301 303 304 304 304 306 306 306 307 307 308 308 305 305 303 303 299 299 298 299 299 299 298 297 297 295 296 295 294 292 291 291 291 290 290 290 290 291 291 291 291 293 294 292 291
296 297 299 302 303 304 304 306 306 306 307 307 306 306 304 305 303 302 296 298 299 299 300 298 298 296 296 296 295 294 294 292 292 291 291 291 290 290 291 288 289 288 290 289 290 292 293
296 296 297 300 302 303 304 306 306 306 307 307 305 302 303 303 300 295 294 298 299 298 298 298 297 296 296 295 294 295 293 292 292 291 290 290 290 289 290 291 290 289 288 291 288 289 290
296 296 296 298 301 303 303 305 305 306 307 306 304 303 301 304 294 291 298 298 298 298 297 297 296 295 294 295 295 295 294 292 293 291 291 291 288 288 290 289 289 289 289 289 289 283 279
296 296 296 297 300 302 303 304 304 305 306 306 304 298 302 300 299 297 297 297 298 298 296 296 295 294 294 295 293 294 293 294 294 292 294 291 289 288 287 288 290 287 290 288 284 285 279
296 296 296 296 299 301 302 304 304 305 306 305 303 300 299 293 296 297 297 297 297 297 296 296 295 294 294 294 293 293 292 292 293 293 292 289 289 291 291 292 291 285 289 288 282 277 282
296 295 295 296 298 300 302 303 303 304 305 305 303 301 300 299 298 296 296 297 297 296 296 295 295 294 293 293 293 292 292 292 292 292 292 289 289 291 292 292 288 292 288 288 288 277 279
296 295 295 295 296 299 301 302 303 303 305 303 302 302 301 296 296 295 296 297 297 296 296 296 295 293 293 293 293 293 293 293 293 293 292 291 288 289 290 289 291 290 289 287 286 285 280
296 295 295 295 295 298 300 301 302 302 302 304 303 301 300 294 295 296 298 298 297 296 296 294 294 294 294 294 294 293 292 292 291 291 292 292 289 290 290 289 281 286 289 287 284 288 284
295 295 295 295 295 297 299 300 301 301 301 301 303 302 300 291 296 298 298 297 296 296 296 295 294 295 294 293 292 293 293 292 291 292 291 291 289 288 284 287 288 289 290 288 287 286 287
296 295 295 294 295 296 298 300 300 301 300 299 300 301 300 298 295 298 297 296 293 293 295 294 295 294 293 292 292 287 290 293 293 292 290 289 289 286 287 287 283 287 288 289 288 287 288
295 295 295 293 294 295 297 298 299 300 300 299 298 298 300 299 297 298 297 295 294 293 290 294 294 292 292 290 282 288 293 292 292 292 291 291 289 286 287 280 283 287 289 289 289 287 288
295 295 294 293 293 295 296 297 298 299 299 299 298 297 297 298 297 297 297 296 294 294 290 293 291 291 289 285 287 287 290 291 290 291 291 290 284 283 286 279 282 289 290 289 288 289 289
295 295 295 294 293 294 295 296 297 298 298 298 298 297 296 297 297 296 296 294 295 296 294 293 291 291 290 283 282 283 288 287 290 289 290 289 287 284 287 286 287 290 290 291 290 290 290
Wind_Speed
18 18 18 18 18 16 14 13 11 12 13 13 11 9 9 7 7 8 9 10 12 12 10 10 13 15 8 26 20 30 23 20 19 11 11 13 15 6 3 2 6 2 3 9 10 9 18
18 19 19 19 19 17 15 13 12 12 12 11 10 8 8 6 6 5 5 5 6 7 6 7 11 24 22 26 26 26 23 19 17 11 10 12 8 7 2 2 2 4 6 4 12 15 17
17 17 18 18 18 17 15 13 12 12 13 13 12 9 8 7 5 6 8 7 6 7 9 8 6 3 40 24 26 26 23 17 20 10 9 11 15 29 9 4 12 6 3 3 15 18 5
17 18 18 18 18 17 14 12 12 13 13 13 11 8 8 7 7 9 8 9 11 10 8 9 10 14 14 26 25 30 23 20 14 13 14 15 10 13 19 12 6 6 6 6 6 16 10
17 18 19 19 19 18 15 12 13 14 14 12 11 8 8 7 12 12 9 6 9 19 24 14 8 6 8 20 40 32 26 27 13 21 20 10 15 20 30 5 6 10 5 7 8 16 6
17 18 19 20 20 19 16 13 11 15 15 13 12 8 9 5 8 9 14 15 9 3 3 6 21 6 16 26 32 35 22 31 19 6 8 26 14 8 15 14 4 7 6 7 7 10 7
18 19 20 21 21 20 16 14 12 14 16 14 11 8 9 8 4 5 11 11 4 12 31 24 18 17 3 12 20 39 30 29 27 24 6 22 13 10 8 7 3 5 7 11 5 5 8
18 19 20 21 22 22 18 14 13 14 16 15 11 7 7 8 6 2 4 4 8 11 10 17 23 25 8 10 25 39 26 13 19 12 3 7 13 6 4 9 11 10 13 14 8 12 9
17 19 20 21 21 22 19 14 13 15 16 15 12 9 5 5 8 5 7 11 15 10 6 7 14 26 9 13 21 33 27 11 10 13 15 10 3 11 11 9 14 8 9 10 15 15 11
17 18 20 21 21 21 19 15 11 13 13 16 13 12 10 6 5 7 8 11 10 5 5 10 11 10 26 7 9 34 20 9 8 5 2 8 6 10 6 10 10 12 8 16 17 9 4
18 18 19 20 21 20 19 17 12 7 11 12 13 11 10 13 6 7 5 9 8 1 5 9 6 7 17 15 6 26 21 19 5 5 6 2 6 6 7 11 11 9 17 19 20 16 6
18 19 19 20 20 20 19 17 14 8 7 10 12 12 12 8 10 7 7 9 4 6 3 6 5 6 7 12 5 9 22 12 13 3 8 4 6 4 3 20 4 10 12 18 1 2 3
19 19 19 20 20 20 19 17 15 9 3 4 12 13 13 12 9 4 6 6 5 7 4 7 4 5 4 6 5 6 6 16 7 6 7 6 2 9 11 9 9 21 12 6 5 2 4
19 19 19 19 20 21 21 19 16 12 6 3 3 15 13 13 8 4 6 5 9 2 3 3 5 1 5 8 4 7 3 5 7 4 3 6 6 8 17 4 6 11 4 3 6 5 3
18 18 18 19 20 21 21 20 17 12 7 4 4 5 16 11 9 4 2 7 5 1 3 5 2 5 5 6 5 5 5 4 5 6 4 6 4 4 8 11 4 9 6 9 4 6 4
17 18 19 19 20 21 23 22 17 13 8 5 3 1 20 9 9 4 7 5 2 3 3 3 3 4 6 5 6 4 3 4 5 6 3 2 4 3 6 8 4 2 6 5 4 5 2
17 18 19 20 20 22 24 23 18 13 8 5 2 3 17 5 7 13 4 3 3 6 2 4 2 3 3 4 3 2 3 1 2 6 4 2 2 7 4 4 3 6 5 3 2 3 3
16 17 19 19 21 22 24 23 19 13 7 4 4 4 15 7 9 6 2 4 5 4 8 6 4 3 2 3 3 2 1 1 5 2 3 2 2 4 3 4 3 1 2 4 2 5 3
15 16 18 19 20 22 24 23 19 13 9 5 7 7 20 4 4 2 4 5 6 4 5 3 4 4 4 3 2 1 1 3 4 5 2 1 2 4 5 3 5 4 7 5 3 3 2
14 16 17 19 20 21 24 23 20 13 8 5 4 3 12 21 15 7 5 3 4 6 5 6 3 3 4 3 3 2 2 1 7 2 6 2 2 5 4 7 3 2 5 6 3 2 2
12 14 16 17 19 20 23 22 20 13 7 4 5 4 3 2 7 8 5 2 3 2 3 5 3 3 1 2 3 0 1 4 2 1 3 3 2 4 5 6 1 4 4 2 2 4 4
12 13 14 16 17 19 22 22 20 15 8 7 5 6 8 5 3 5 4 1 3 2 2 1 3 1 2 2 3 3 2 2 4 1 3 2 3 2 6 7 4 7 5 5 3 3 5
12 12 12 14 16 18 20 21 20 18 10 11 14 14 5 3 2 3 1 3 3 6 2 3 2 1 3 4 7 13 15 13 8 2 2 2 1 2 4 3 4 5 8 5 4 4 5
11 11 11 11 13 15 18 20 20 19 17 11 10 6 4 0 2 2 5 3 2 4 4 3 1 0 1 12 13 3 4 10 11 13 11 2 2 1 2 3 3 6 1 4 6 7 7
12 12 10 9 10 12 14 16 17 17 15 10 6 4 3 2 4 5 7 4 4 2 2 4 3 4 9 6 2 3 2 2 1 2 5 10 1 2 1 1 5 3 3 4 5 9 9
11 12 10 8 8 9 11 13 14 14 13 10 7 6 4 11 5 6 5 4 3 2 0 3 4 4 4 3 3 3 1 1 2 3 5 4 1 3 1 0 3 4 5 1 5 8 5
10 11 10 7 7 7 9 10 11 12 12 11 9 5 3 4 7 8 3 4 5 3 2 2 2 0 2 2 3 2 2 0 1 2 2 2 1 2 1 3 7 3 3 4 1 6 7
12 9 10 8 6 6 7 8 9 10 10 10 10 6 2 2 9 7 6 5 5 4 3 4 2 1 3 3 2 2 2 1 2 3 2 3 3 2 0 2 6 5 3 3 8 13 18
11 9 9 9 7 5 6 6 7 9 10 10 9 6 2 2 4 7 7 6 4 3 5 5 1 2 3 4 0 2 1 1 2 3 1 3 5 3 7 5 7 14 15 19 19 18 21
Wind_Direction
34 32 29 25 23 23 24 27 27 24 24 24 27 33 41 57 76 70 65 70 76 83 78 66 43 30 64 58 10 358 8 3 11 24 41 35 36 36 41 359 345 95 339 330 8 44 36
32 30 28 25 23 23 27 30 29 27 25 25 29 37 45 57 68 60 53 65 80 81 68 65 64 50 66 53 8 4 13 10 13 32 45 34 28 7 53 31 91 301 303 4 36 55 59
36 32 29 27 25 23 24 25 27 27 23 23 25 36 44 51 66 70 74 72 63 68 60 57 52 16 45 24 14 10 23 25 29 40 62 44 66 51 351 5 339 310 338 25 30 3 28
37 33 30 27 26 26 30 33 33 30 25 26 30 47 42 54 79 105 89 87 84 64 37 58 74 70 78 19 20 19 19 35 52 51 82 72 83 43 21 319 19 24 43 8 44 26 343
38 35 32 29 26 24 27 33 36 32 27 27 32 53 41 90 97 90 80 103 91 96 67 54 64 60 46 1 27 25 27 22 81 78 74 100 48 51 22 30 24 28 320 340 330 36 349
38 37 34 32 30 27 28 31 33 25 25 25 26 40 41 87 134 98 96 100 93 120 4 46 46 72 39 31 15 20 32 28 37 71 44 42 54 58 34 41 20 315 326 319 304 346 19
38 37 35 33 31 29 30 34 34 25 24 28 30 43 48 57 166 165 142 119 88 59 71 72 50 37 52 18 2 23 21 36 53 56 72 45 59 60 45 41 313 307 302 300 273 29 21
38 36 35 33 32 30 32 38 39 29 26 29 33 46 52 52 52 65 186 188 118 123 85 71 52 42 67 12 24 21 27 52 44 47 56 47 58 75 59 22 13 357 320 310 291 351 351
36 35 33 32 31 32 33 37 38 34 34 32 36 37 37 37 35 53 96 129 130 123 90 54 55 36 19 21 44 14 19 23 62 55 61 86 352 67 39 3 349 340 290 319 294 319 289
34 33 32 29 30 30 32 33 35 35 36 36 37 34 33 14 26 56 89 137 135 114 80 339 5 24 22 112 56 24 34 20 51 50 101 89 21 49 23 6 356 325 299 297 282 297 261
33 31 30 28 27 26 28 27 25 28 32 36 36 33 31 38 51 67 97 153 151 73 60 326 22 21 42 74 325 15 29 57 70 49 59 13 19 16 13 333 327 265 301 290 280 271 263
32 29 28 27 26 24 21 23 19 21 31 40 30 26 26 41 46 69 109 137 145 46 50 352 29 16 32 45 57 43 33 57 42 47 34 63 29 19 322 320 292 284 305 301 234 115 232
28 26 24 25 24 23 18 16 15 13 3 21 16 21 24 35 32 61 142 143 41 84 350 335 346 356 54 354 44 31 39 44 43 11 33 338 352 348 357 337 327 353 360 342 347 53 50
24 22 20 19 19 17 16 11 8 6 358 341 31 33 18 25 25 66 141 64 70 348 319 334 354 22 58 3 33 24 53 39 11 32 45 30 344 1 338 11 284 313 330 286 312 348 33
21 18 16 15 13 10 9 9 1 358 349 350 313 330 16 28 32 68 134 54 167 275 288 335 350 42 358 2 33 64 53 45 19 14 52 5 286 323 340 350 39 307 357 289 269 83 74
20 15 14 12 11 7 5 6 3 357 357 343 343 317 11 21 27 76 73 114 107 3 350 62 67 34 12 336 25 33 36 324 353 20 39 7 302 327 317 11 359 261 289 356 339 355 57
15 12 12 11 9 6 5 4 7 3 4 10 35 110 5 29 42 62 93 100 117 29 99 52 62 46 8 11 15 34 6 281 313 327 27 71 96 309 26 9 326 347 350 346 198 27 354
11 10 9 11 9 8 6 5 8 12 15 22 51 53 0 30 47 46 72 109 112 28 48 60 86 75 12 14 31 57 87 105 10 330 357 254 170 302 255 190 71 27 293 319 74 344 12
5 8 9 10 11 9 8 8 10 18 33 80 82 50 25 98 101 25 73 63 72 50 31 56 52 43 17 28 11 55 164 203 354 349 41 348 0 328 328 21 9 23 330 332 141 85 304
5 3 8 9 11 11 10 11 12 18 33 71 98 43 38 60 82 106 111 63 105 56 62 71 51 86 27 26 33 331 322 291 321 280 42 118 173 165 216 245 213 325 320 340 102 76 242
1 3 6 9 11 13 14 15 15 21 29 66 67 76 63 1 24 89 89 93 107 72 85 56 57 70 7 321 326 323 298 317 297 319 36 84 272 198 240 232 183 197 256 316 88 203 143
357 1 4 7 9 14 18 21 20 21 32 77 96 124 88 86 85 71 21 97 123 130 109 65 115 195 182 208 207 267 210 231 254 337 25 10 276 210 276 198 170 246 236 245 217 209 284
353 357 1 6 9 14 20 23 28 35 50 82 98 112 130 43 77 84 217 159 149 145 90 135 161 156 228 243 267 275 262 251 253 234 340 293 265 296 285 151 252 293 239 208 234 203 168
358 357 357 2 8 14 21 24 29 38 56 78 103 104 97 348 92 150 144 115 135 192 169 184 161 273 265 308 304 294 246 257 255 255 224 267 273 240 310 56 11 245 265 191 197 257 215
1 4 4 1 6 12 21 26 28 33 45 50 73 88 112 109 131 113 126 119 127 110 124 190 199 270 310 326 40 27 353 26 201 167 186 212 253 316 101 227 270 270 226 189 174 278 235
352 3 6 4 5 10 18 25 28 32 35 38 51 71 93 127 227 146 146 163 170 174 121 194 240 288 338 63 62 108 232 267 311 327 155 158 138 128 38 38 261 248 344 197 127 292 288
337 356 6 6 7 7 14 20 26 29 30 35 39 49 74 105 158 163 168 174 157 155 164 252 277 307 38 71 74 125 252 153 241 252 225 286 315 197 158 223 288 259 290 80 279 251 305
328 349 359 2 5 1 9 12 18 23 27 29 28 33 40 129 161 185 182 168 163 186 150 161 58 292 62 67 117 224 181 274 293 247 212 214 143 243 81 39 297 211 284 179 249 298 310
311 336 350 356 359 355 355 359 5 11 19 23 25 24 36 104 156 181 189 195 197 230 222 187 207 144 146 89 358 80 209 315 192 277 190 234 183 192 178 217 237 293 263 287 274 281 293